EW9507 Weather Reports


Display with metric or nautical units.
time (UTC)temp
F
wind
direction
speed
MPH
gust
MPH
rain 1hr
in
rain 24hr
in
rain mn
in
humidity
%
barometer
mb
20260906214559 91 225 16.0 26.0 0.00 0.00 0.00 13 1001.2
20260906213052 92 223 18.0 30.0 0.00 0.00 0.00 13 1001.5
20260906211547 92 217 19.0 31.0 0.00 0.00 0.00 12 1001.8
20260906210047 92 225 13.0 27.0 0.00 0.00 0.00 13 1002.1
20260906204543 93 225 17.0 27.0 0.00 0.00 0.00 14 1002.2
20260906203041 92 206 19.0 27.0 0.00 0.00 0.00 14 1002.1
20260906201544 91 219 16.0 25.0 0.00 0.00 0.00 13 1002.2
20260906200037 91 219 14.0 20.0 0.00 0.00 0.00 14 1002.3
20260906194534 90 221 8.0 23.0 0.00 0.00 0.00 14 1002.5
20260906193030 89 184 13.0 20.0 0.00 0.00 0.00 18 1002.9
20260906191529 89 281 14.0 29.0 0.00 0.00 0.00 18 1003.0
20260906191527 89 257 14.0 29.0 0.00 0.00 0.00 18 1003.0
20260906190025 89 227 14.0 23.0 0.00 0.00 0.00 18 1003.2
20260906184524 88 206 7.0 17.0 0.00 0.00 0.00 22 1003.4
20260906183023 87 236 11.0 18.0 0.00 0.00 0.00 23 1003.8
20260906181513 86 151 10.0 18.0 0.00 0.00 0.00 26 1004.0
20260906180008 84 209 8.0 13.0 0.00 0.00 0.00 28 1004.3
20260906174510 84 211 9.0 15.0 0.00 0.00 0.00 28 1004.6
20260906173001 82 205 8.0 16.0 0.00 0.00 0.00 30 1004.9
20260906171604 82 170 9.0 15.0 0.00 0.00 0.00 32 1005.1
20260906171501 81 171 6.0 13.0 0.00 0.00 0.00 32 1005.1
20260906170058 81 177 8.0 15.0 0.00 0.00 0.00 33 1005.4
20260906164555 80 190 8.0 17.0 0.00 0.00 0.00 37 1005.5
20260906163020 79 166 8.0 14.0 0.00 0.00 0.00 41 1005.6
20260906161517 77 162 6.0 12.0 0.00 0.00 0.00 41 1005.5
20260906160044 76 169 8.0 13.0 0.00 0.00 0.00 44 1005.6
20260906154542 75 189 8.0 12.0 0.00 0.00 0.00 47 1005.5
20260906153044 75 176 7.0 11.0 0.00 0.00 0.00 48 1005.5
20260906151533 73 168 7.0 10.0 0.00 0.00 0.00 56 1005.6
20260906150026 71 141 6.0 13.0 0.00 0.00 0.00 60 1005.8
20260906144523 69 175 9.0 14.0 0.00 0.00 0.00 66 1006.0
20260906143055 67 152 9.0 14.0 0.00 0.00 0.00 70 1006.2
20260906141551 64 184 7.0 11.0 0.00 0.00 0.00 73 1006.2
20260906140057 64 190 7.0 11.0 0.00 0.00 0.00 73 1006.0
20260906134547 62 160 7.0 11.0 0.00 0.00 0.00 77 1005.9
20260906133046 60 155 6.0 9.0 0.00 0.00 0.00 78 1005.8
20260906131603 60 153 7.0 9.0 0.00 0.00 0.00 77 1005.8
20260906130015 60 186 3.0 8.0 0.00 0.00 0.00 78 1005.7
20260906124512 58 167 3.0 5.0 0.00 0.00 0.00 80 1005.6
20260906123009 58 274 3.0 5.0 0.00 0.00 0.00 78 1005.4
20260906121508 58 208 4.0 8.0 0.00 0.00 0.00 81 1005.2
20260906120008 58 221 3.0 6.0 0.00 0.00 0.00 77 1005.2
20260906114506 59 189 5.0 6.0 0.00 0.00 0.00 78 1005.3
20260906113006 59 169 3.0 5.0 0.00 0.00 0.00 79 1005.3
20260906111501 57 262 2.0 6.0 0.00 0.00 0.00 77 1005.5
20260906110100 59 226 4.0 5.0 0.00 0.00 0.00 76 1005.2
20260906104600 59 229 2.0 3.0 0.00 0.00 0.00 76 1005.3
20260906103055 58 141 2.0 4.0 0.00 0.00 0.00 76 1005.3
20260906101557 59 210 3.0 5.0 0.00 0.00 0.00 71 1005.3
20260906100049 61 231 3.0 6.0 0.00 0.00 0.00 70 1005.1
20260906094547 63 182 7.0 9.0 0.00 0.00 0.00 69 1005.0
20260906093048 63 136 7.0 12.0 0.00 0.00 0.00 68 1005.0
20260906091533 63 134 10.0 13.0 0.00 0.00 0.00 70 1005.0
20260906090032 62 174 3.0 5.0 0.00 0.00 0.00 68 1004.6
20260906084533 62 197 1.0 4.0 0.00 0.00 0.00 66 1004.5
20260906083028 62 219 4.0 6.0 0.00 0.00 0.00 66 1004.5
20260906081528 63 188 3.0 5.0 0.00 0.00 0.00 64 1004.5
20260906080022 64 155 5.0 9.0 0.00 0.00 0.00 63 1004.6
20260906074521 65 146 6.0 10.0 0.00 0.00 0.00 63 1004.7
20260906073016 66 138 5.0 7.0 0.00 0.00 0.00 60 1004.7
20260906071515 67 154 6.0 9.0 0.00 0.00 0.00 59 1004.7
20260906070017 67 144 6.0 10.0 0.00 0.00 0.00 59 1004.8
20260906064518 67 138 7.0 9.0 0.00 0.00 0.00 58 1004.8
20260906063014 68 151 7.0 10.0 0.00 0.00 0.00 57 1005.0
20260906061514 67 141 7.0 12.0 0.00 0.00 0.00 57 1005.3
20260906060057 66 127 6.0 9.0 0.00 0.00 0.00 55 1005.2
20260906054546 69 149 6.0 10.0 0.00 0.00 0.00 52 1005.0
20260906053039 69 164 7.0 9.0 0.00 0.00 0.00 51 1005.0
20260906051542 71 145 4.0 8.0 0.00 0.00 0.00 49 1005.1
20260906050038 71 163 5.0 8.0 0.00 0.00 0.00 50 1005.3
20260906044537 71 191 6.0 8.0 0.00 0.00 0.00 50 1005.4
20260906043006 72 159 4.0 7.0 0.00 0.00 0.00 48 1005.3
20260906041511 73 165 5.0 8.0 0.00 0.00 0.00 46 1005.4
20260906034535 73 159 6.0 8.0 0.00 0.00 0.00 42 1005.2
20260906033033 74 149 6.0 10.0 0.00 0.00 0.00 40 1005.2
20260906031629 75 146 7.0 11.0 0.00 0.00 0.00 39 1005.0
20260906030031 76 151 7.0 11.0 0.00 0.00 0.00 36 1005.0
20260906030028 76 144 7.0 11.0 0.00 0.00 0.00 36 1005.0
20260906024526 76 139 11.0 17.0 0.00 0.00 0.00 34 1005.1
20260906023027 73 170 2.0 4.0 0.00 0.00 0.00 31 1004.6
20260906021559 74 269 0.0 6.0 0.00 0.00 0.00 29 1004.4
20260906020056 74 141 5.0 7.0 0.00 0.00 0.00 29 1004.3
20260906014532 78 239 4.0 6.0 0.00 0.00 0.00 27 1004.2
20260906013024 82 151 4.0 6.0 0.00 0.00 0.00 23 1004.2
20260906011525 82 152 5.0 7.0 0.00 0.00 0.00 23 1004.1
20260906010021 83 203 5.0 6.0 0.00 0.00 0.00 22 1004.0
20260906004519 85 143 5.0 11.0 0.00 0.00 0.00 20 1003.9
20260906003020 87 166 5.0 11.0 0.00 0.00 0.00 19 1003.8
20260906001515 89 159 9.0 14.0 0.00 0.00 0.00 18 1003.7
20260906000117 88 157 7.0 10.0 0.00 0.00 0.00 19 1003.8
20260905234515 89 166 5.0 11.0 0.00 0.00 0.00 18 1003.8
20260905233012 87 195 4.0 9.0 0.00 0.00 0.00 19 1003.7
20260905231510 89 182 6.0 13.0 0.00 0.00 0.00 18 1003.7
20260905230009 90 138 8.0 12.0 0.00 0.00 0.00 18 1003.6
20260905224516 88 178 5.0 15.0 0.00 0.00 0.00 18 1003.7
20260905223007 90 163 8.0 18.0 0.00 0.00 0.00 17 1003.8
20260905221509 88 203 5.0 12.0 0.00 0.00 0.00 18 1004.0
20260905220003 88 223 5.0 16.0 0.00 0.00 0.00 18 1004.1